TimeCDT,TemperatureF,Dew PointF,Humidity,Sea Level PressureIn,VisibilityMPH,Wind Direction,Wind SpeedMPH,Gust SpeedMPH,PrecipitationIn,Events,Conditions,WindDirDegrees,DateUTC
12:53 AM,69.1,63.0,81,30.04,10.0,North,5.8,-,N/A,,Clear,10,2013-09-04 05:53:00
1:53 AM,68.0,63.0,84,30.04,10.0,North,4.6,-,N/A,,Clear,360,2013-09-04 06:53:00
2:53 AM,68.0,63.0,84,30.04,10.0,Calm,Calm,-,N/A,,Clear,0,2013-09-04 07:53:00
3:53 AM,66.0,62.1,87,30.04,10.0,North,4.6,-,N/A,,Clear,10,2013-09-04 08:53:00
4:53 AM,64.9,61.0,87,30.04,10.0,Calm,Calm,-,N/A,,Clear,0,2013-09-04 09:53:00
5:53 AM,64.0,61.0,90,30.06,10.0,Calm,Calm,-,N/A,,Partly Cloudy,0,2013-09-04 10:53:00
6:53 AM,64.0,62.1,93,30.09,10.0,Calm,Calm,-,N/A,Fog,Patches of Fog,0,2013-09-04 11:53:00
7:53 AM,70.0,64.0,81,30.10,10.0,NNE,3.5,-,N/A,,Partly Cloudy,30,2013-09-04 12:53:00
8:53 AM,73.0,64.0,73,30.12,10.0,Calm,Calm,-,N/A,,Scattered Clouds,0,2013-09-04 13:53:00
9:53 AM,77.0,63.0,62,30.13,10.0,Variable,4.6,-,N/A,,Scattered Clouds,0,2013-09-04 14:53:00
10:53 AM,79.0,60.1,52,30.14,10.0,NE,4.6,-,N/A,,Mostly Cloudy,40,2013-09-04 15:53:00
11:53 AM,82.0,61.0,49,30.13,10.0,NNE,3.5,-,N/A,,Mostly Cloudy,30,2013-09-04 16:53:00
12:53 PM,82.0,60.1,47,30.12,10.0,NNE,4.6,-,N/A,,Mostly Cloudy,20,2013-09-04 17:53:00
1:53 PM,84.0,60.1,44,30.11,10.0,North,3.5,-,N/A,,Mostly Cloudy,10,2013-09-04 18:53:00
2:53 PM,84.9,57.9,40,30.09,10.0,NNE,5.8,-,N/A,,Mostly Cloudy,20,2013-09-04 19:53:00
3:53 PM,86.0,59.0,40,30.08,10.0,Variable,3.5,-,N/A,,Mostly Cloudy,0,2013-09-04 20:53:00
4:53 PM,84.0,60.1,44,30.08,10.0,NE,9.2,-,N/A,,Mostly Cloudy,40,2013-09-04 21:53:00
5:53 PM,82.0,60.1,47,30.08,10.0,North,8.1,-,N/A,,Mostly Cloudy,10,2013-09-04 22:53:00
6:53 PM,78.1,61.0,56,30.08,10.0,NNE,8.1,-,N/A,,Partly Cloudy,30,2013-09-04 23:53:00
7:53 PM,75.0,60.1,60,30.09,10.0,NNE,5.8,-,N/A,,Partly Cloudy,30,2013-09-05 00:53:00
8:53 PM,73.0,60.1,64,30.11,10.0,NNE,5.8,-,N/A,,Scattered Clouds,30,2013-09-05 01:53:00
9:53 PM,71.1,61.0,70,30.13,10.0,North,4.6,-,N/A,,Mostly Cloudy,360,2013-09-05 02:53:00
10:53 PM,68.0,61.0,78,30.14,10.0,Calm,Calm,-,N/A,,Clear,0,2013-09-05 03:53:00
11:53 PM,66.9,61.0,81,30.14,10.0,Calm,Calm,-,N/A,,Clear,0,2013-09-05 04:53:00